BSAT-3C (JCSAT-110R)

Last updated on Thu Aug 13 2026 00:02:58 GMT+0000 (Coordinated Universal Time)

1 37776U 11041B 26224.52252125 -.00000368 00000+0 00000+0 0 9993 2 37776 0.0478 290.7602 0000372 306.1587 22.0970 1.00270384 51033
UTC large
Height (km)
Speed (km/s)
/
Latitude / Longitude
Inclination (degrees)
Orbital Period (minutes)
Azimuth
Elevation
Range (km)
Doppler Factor

Next 0 passes for location: London (51.5072 / 0.1276)

No passes found over London.
BSAT-3C (JCSAT-110R)